TimeMST,TemperatureF,Dew PointF,Humidity,Sea Level PressureIn,VisibilityMPH,Wind Direction,Wind SpeedMPH,Gust SpeedMPH,PrecipitationIn,Events,Conditions,WindDirDegrees,DateUTC
12:53 AM,24.1,21.9,91,30.33,8.0,Calm,Calm,-,N/A,,Clear,0,2013-11-24 07:53:00
1:53 AM,25.0,21.9,88,30.32,7.0,SE,5.8,-,N/A,,Clear,130,2013-11-24 08:53:00
2:53 AM,25.0,21.9,88,30.33,9.0,SE,3.5,-,N/A,,Clear,140,2013-11-24 09:53:00
3:53 AM,24.1,19.9,84,30.34,8.0,Calm,Calm,-,N/A,,Clear,0,2013-11-24 10:53:00
4:53 AM,25.0,21.0,85,30.33,6.0,SE,5.8,-,N/A,,Clear,140,2013-11-24 11:53:00
5:53 AM,24.1,21.0,88,30.34,6.0,Calm,Calm,-,N/A,,Clear,0,2013-11-24 12:53:00
6:53 AM,23.0,19.9,88,30.36,10.0,Calm,Calm,-,N/A,,Clear,0,2013-11-24 13:53:00
7:53 AM,23.0,19.9,88,30.37,6.0,SSE,4.6,-,N/A,,Clear,150,2013-11-24 14:53:00
8:53 AM,26.1,21.9,84,30.37,5.0,SE,4.6,-,N/A,,Clear,140,2013-11-24 15:53:00
9:53 AM,30.0,25.0,82,30.38,6.0,SE,5.8,-,N/A,,Haze,140,2013-11-24 16:53:00
10:53 AM,32.0,25.0,75,30.37,6.0,Calm,Calm,-,N/A,,Haze,0,2013-11-24 17:53:00
11:53 AM,35.1,26.1,70,30.35,7.0,Calm,Calm,-,N/A,,Clear,0,2013-11-24 18:53:00
12:53 PM,36.0,26.1,67,30.34,7.0,Calm,Calm,-,N/A,,Clear,0,2013-11-24 19:53:00
1:53 PM,37.9,27.0,65,30.31,7.0,WNW,3.5,-,N/A,,Clear,300,2013-11-24 20:53:00
2:53 PM,39.0,27.0,62,30.31,7.0,NW,6.9,-,N/A,,Clear,310,2013-11-24 21:53:00
3:53 PM,39.0,27.0,62,30.30,8.0,WNW,5.8,-,N/A,,Clear,290,2013-11-24 22:53:00
4:53 PM,37.0,26.1,65,30.30,7.0,West,4.6,-,N/A,,Clear,260,2013-11-24 23:53:00
5:53 PM,34.0,26.1,73,30.32,8.0,WNW,4.6,-,N/A,,Clear,300,2013-11-25 00:53:00
6:53 PM,33.1,25.0,72,30.32,7.0,Calm,Calm,-,N/A,,Clear,0,2013-11-25 01:53:00
7:53 PM,32.0,25.0,75,30.34,6.0,Calm,Calm,-,N/A,,Haze,0,2013-11-25 02:53:00
8:53 PM,30.0,25.0,82,30.35,6.0,Calm,Calm,-,N/A,,Haze,0,2013-11-25 03:53:00
9:53 PM,28.9,24.1,82,30.35,6.0,Calm,Calm,-,N/A,,Haze,0,2013-11-25 04:53:00
10:53 PM,27.0,23.0,85,30.36,6.0,Calm,Calm,-,N/A,,Clear,0,2013-11-25 05:53:00
11:53 PM,27.0,23.0,85,30.37,5.0,Calm,Calm,-,N/A,,Clear,0,2013-11-25 06:53:00